"read_dt","SO2 (ppb)","flags","PMT voltage (V)","lamp voltage (V)","lamp intensity (Hz)","internal temp (C)","react chamber temp (C)","sample flow (l/min)","pres (mmHg)","SO2 bkg (ppb)","SO2 coefficient"
2015-08-01 00:00:00,1619E-3,5C000000,-0724,0821,12173,025.7,045.4,0.480,740.6,01.18,0.508
2015-08-01 00:01:00,1563E-3,5C000000,-0724,0821,12379,025.7,045.4,0.481,740.6,01.18,0.508
2015-08-01 00:02:00,1603E-3,5C000000,-0724,0821,12150,025.7,045.4,0.481,740.6,01.18,0.508
2015-08-01 00:03:00,1771E-3,5C000000,-0724,0821,12372,025.7,045.4,0.481,740.6,01.18,0.508
2015-08-01 00:04:00,1726E-3,5C000000,-0724,0821,12355,025.7,045.4,0.480,740.6,01.18,0.508
2015-08-01 00:05:00,1482E-3,5C000000,-0724,0821,12297,025.7,045.4,0.480,740.6,01.18,0.508
2015-08-01 00:06:00,1623E-3,5C000000,-0724,0821,12331,025.7,045.4,0.481,740.6,01.18,0.508
2015-08-01 00:07:00,1558E-3,5C000000,-0724,0822,12310,025.7,045.4,0.481,740.6,01.18,0.508
2015-08-01 00:08:00,1697E-3,5C000000,-0724,0821,12379,025.7,045.4,0.481,740.6,01.18,0.508
2015-08-01 00:09:00,1621E-3,5C000000,-0724,0822,12368,025.7,045.4,0.480,740.6,01.18,0.508
2015-08-01 00:10:00,1654E-3,5C000000,-0724,0822,12296,025.7,045.4,0.480,740.6,01.18,0.508
2015-08-01 00:11:00,1650E-3,5C000000,-0724,0822,12223,025.7,045.4,0.481,740.6,01.18,0.508
2015-08-01 00:12:00,1548E-3,5C000000,-0724,0821,12236,025.7,045.4,0.481,740.6,01.18,0.508
2015-08-01 00:13:00,1588E-3,5C000000,-0724,0822,12204,025.7,045.4,0.480,740.6,01.18,0.508
2015-08-01 00:14:00,1542E-3,5C000000,-0724,0822,12224,025.7,045.4,0.480,740.6,01.18,0.508
2015-08-01 00:15:00,1635E-3,5C000000,-0724,0821,12113,025.7,045.4,0.481,740.6,01.18,0.508
2015-08-01 00:16:00,1623E-3,5C000000,-0724,0822,12344,025.7,045.4,0.481,740.6,01.18,0.508
2015-08-01 00:17:00,1708E-3,5C000000,-0724,0822,12320,025.7,045.4,0.481,740.6,01.18,0.508
2015-08-01 00:18:00,1672E-3,5C000000,-0724,0822,12242,025.7,045.4,0.480,740.6,01.18,0.508
2015-08-01 00:19:00,1693E-3,5C000000,-0724,0821,12037,025.7,045.4,0.480,740.6,01.18,0.508
2015-08-01 00:20:00,1493E-3,5C000000,-0724,0822,12280,025.7,045.4,0.481,740.6,01.18,0.508
2015-08-01 00:21:00,1537E-3,5C000000,-0724,0822,12289,025.7,045.4,0.481,740.6,01.18,0.508
2015-08-01 00:22:00,1817E-3,5C000000,-0724,0821,12152,025.7,045.4,0.480,740.6,01.18,0.508
2015-08-01 00:23:00,1707E-3,5C000000,-0724,0821,12357,025.7,045.4,0.480,740.6,01.18,0.508
2015-08-01 00:24:00,1581E-3,5C000000,-0724,0821,12096,025.7,045.4,0.481,740.6,01.18,0.508
2015-08-01 00:25:00,1620E-3,5C000000,-0724,0822,12266,025.7,045.4,0.481,740.6,01.18,0.508
2015-08-01 00:26:00,1624E-3,5C000000,-0724,0821,12074,025.7,045.4,0.481,740.6,01.18,0.508
2015-08-01 00:27:00,1695E-3,5C000000,-0724,0821,12232,025.7,045.4,0.480,740.6,01.18,0.508
2015-08-01 00:28:00,1570E-3,5C000000,-0724,0821,12145,025.7,045.4,0.480,740.6,01.18,0.508
2015-08-01 00:29:00,1788E-3,5C000000,-0724,0821,12233,025.7,045.4,0.481,740.6,01.18,0.508
2015-08-01 00:30:00,1737E-3,5C000000,-0724,0822,12346,025.7,045.4,0.481,740.6,01.18,0.508
2015-08-01 00:31:00,1838E-3,5C000000,-0724,0821,12262,025.7,045.4,0.480,740.6,01.18,0.508
2015-08-01 00:32:00,1737E-3,5C000000,-0724,0823,12321,025.7,045.4,0.481,740.6,01.18,0.508
2015-08-01 00:33:00,1822E-3,5C000000,-0724,0822,12355,025.7,045.4,0.481,740.6,01.18,0.508
2015-08-01 00:34:00,1469E-3,5C000000,-0724,0821,12198,025.8,045.4,0.481,740.6,01.18,0.508
2015-08-01 00:35:00,1621E-3,5C000000,-0724,0822,12331,025.7,045.4,0.480,740.6,01.18,0.508
2015-08-01 00:36:00,1603E-3,5C000000,-0724,0821,12300,025.7,045.4,0.480,740.6,01.18,0.508
2015-08-01 00:37:00,1659E-3,5C000000,-0724,0821,12261,025.7,045.4,0.481,740.6,01.18,0.508
2015-08-01 00:38:00,1722E-3,5C000000,-0724,0822,12325,025.7,045.4,0.481,740.6,01.18,0.508
2015-08-01 00:39:00,1554E-3,5C000000,-0724,0822,12186,025.7,045.4,0.480,740.6,01.18,0.508
2015-08-01 00:40:00,1632E-3,5C000000,-0724,0821,12269,025.7,045.4,0.480,740.6,01.18,0.508
2015-08-01 00:41:00,1722E-3,5C000000,-0724,0821,12205,025.7,045.4,0.481,740.6,01.18,0.508
2015-08-01 00:42:00,1656E-3,5C000000,-0724,0821,12300,025.7,045.4,0.481,740.5,01.18,0.508
2015-08-01 00:43:00,1644E-3,5C000000,-0724,0822,12224,025.7,045.4,0.480,740.6,01.18,0.508
2015-08-01 00:44:00,1599E-3,5C000000,-0724,0822,12201,025.7,045.4,0.480,740.5,01.18,0.508
2015-08-01 00:45:00,1503E-3,5C000000,-0724,0822,12230,025.7,045.4,0.481,740.5,01.18,0.508
2015-08-01 00:46:00,1612E-3,5C000000,-0724,0822,12105,025.8,045.4,0.480,740.5,01.18,0.508
2015-08-01 00:47:00,1714E-3,5C000000,-0724,0822,12187,025.7,045.4,0.480,740.5,01.18,0.508
2015-08-01 00:48:00,1596E-3,5C000000,-0724,0821,12349,025.7,045.4,0.481,740.5,01.18,0.508
2015-08-01 00:49:00,1580E-3,5C000000,-0724,0822,12278,025.7,045.4,0.481,740.5,01.18,0.508
2015-08-01 00:50:00,1674E-3,5C000000,-0724,0822,12277,025.7,045.4,0.480,740.5,01.18,0.508
2015-08-01 00:51:00,1652E-3,5C000000,-0724,0821,12281,025.7,045.4,0.480,740.5,01.18,0.508
2015-08-01 00:52:00,1578E-3,5C000000,-0724,0821,12311,025.8,045.4,0.481,740.5,01.18,0.508
2015-08-01 00:53:00,1636E-3,5C000000,-0724,0821,12368,025.8,045.4,0.481,740.5,01.18,0.508
2015-08-01 00:54:00,1578E-3,5C000000,-0724,0822,12320,025.8,045.4,0.480,740.5,01.18,0.508
2015-08-01 00:55:00,1667E-3,5C000000,-0724,0821,12247,025.7,045.4,0.480,740.5,01.18,0.508
2015-08-01 00:56:00,1681E-3,5C000000,-0724,0821,12304,025.7,045.4,0.481,740.5,01.18,0.508
2015-08-01 00:57:00,1649E-3,5C000000,-0724,0822,12331,025.7,045.4,0.480,740.5,01.18,0.508
2015-08-01 00:58:00,1721E-3,5C000000,-0724,0822,12298,025.7,045.4,0.480,740.5,01.18,0.508
2015-08-01 00:59:00,1661E-3,5C000000,-0724,0821,12184,025.7,045.4,0.481,740.5,01.18,0.508
2015-08-01 01:00:00,1595E-3,5C000000,-0724,0822,12286,025.7,045.4,0.481,740.6,01.18,0.508
2015-08-01 01:01:00,1652E-3,5C000000,-0724,0821,12206,025.8,045.4,0.480,740.5,01.18,0.508
2015-08-01 01:02:00,1660E-3,5C000000,-0724,0821,12284,025.8,045.4,0.480,740.5,01.18,0.508
2015-08-01 01:03:00,1556E-3,5C000000,-0724,0821,12170,025.8,045.4,0.481,740.6,01.18,0.508
2015-08-01 01:04:00,1818E-3,5C000000,-0724,0822,12331,025.7,045.4,0.480,740.5,01.18,0.508
2015-08-01 01:05:00,1611E-3,5C000000,-0724,0822,12258,025.8,045.4,0.480,740.6,01.18,0.508
2015-08-01 01:06:00,1665E-3,5C000000,-0724,0821,12263,025.8,045.4,0.481,740.5,01.18,0.508
2015-08-01 01:07:00,1487E-3,5C000000,-0724,0822,12388,025.8,045.4,0.481,740.5,01.18,0.508
2015-08-01 01:08:00,1595E-3,5C000000,-0724,0822,12321,025.7,045.4,0.480,740.5,01.18,0.508
2015-08-01 01:09:00,1612E-3,5C000000,-0724,0822,12234,025.8,045.4,0.480,740.5,01.18,0.508
2015-08-01 01:10:00,1713E-3,5C000000,-0724,0822,12282,025.8,045.4,0.481,740.5,01.18,0.508
2015-08-01 01:11:00,1678E-3,5C000000,-0724,0821,12326,025.8,045.4,0.481,740.5,01.18,0.508
2015-08-01 01:12:00,1747E-3,5C000000,-0724,0822,12071,025.7,045.4,0.480,740.4,01.18,0.508
2015-08-01 01:13:00,1561E-3,5C000000,-0724,0821,12291,025.8,045.4,0.480,740.5,01.18,0.508
2015-08-01 01:14:00,1685E-3,5C000000,-0724,0823,12276,025.7,045.4,0.481,740.5,01.18,0.508
2015-08-01 01:15:00,1659E-3,5C000000,-0724,0822,12375,025.8,045.4,0.481,740.5,01.18,0.508
2015-08-01 01:16:00,1660E-3,5C000000,-0724,0822,12304,025.8,045.4,0.480,740.4,01.18,0.508
2015-08-01 01:17:00,1659E-3,5C000000,-0724,0822,11970,025.8,045.4,0.480,740.5,01.18,0.508
2015-08-01 01:18:00,1601E-3,5C000000,-0724,0822,12244,025.7,045.4,0.481,740.5,01.18,0.508
2015-08-01 01:19:00,1670E-3,5C000000,-0724,0822,12273,025.8,045.4,0.480,740.5,01.18,0.508
2015-08-01 01:20:00,1633E-3,5C000000,-0724,0821,12267,025.8,045.4,0.480,740.5,01.18,0.508
2015-08-01 01:21:00,1650E-3,5C000000,-0724,0822,12349,025.8,045.4,0.481,740.5,01.18,0.508
2015-08-01 01:22:00,1682E-3,5C000000,-0724,0822,12319,025.8,045.4,0.481,740.5,01.18,0.508
2015-08-01 01:23:00,1594E-3,5C000000,-0724,0822,12228,025.8,045.4,0.480,740.5,01.18,0.508
2015-08-01 01:24:00,1719E-3,5C000000,-0724,0822,12370,025.8,045.4,0.480,740.5,01.18,0.508
2015-08-01 01:25:00,1638E-3,5C000000,-0724,0822,12245,025.8,045.4,0.481,740.5,01.18,0.508
2015-08-01 01:26:00,1608E-3,5C000000,-0724,0822,12278,025.8,045.4,0.480,740.5,01.18,0.508
2015-08-01 01:27:00,1695E-3,5C000000,-0724,0822,12464,025.8,045.4,0.480,740.5,01.18,0.508
2015-08-01 01:28:00,1575E-3,5C000000,-0724,0821,12161,025.8,045.4,0.480,740.5,01.18,0.508
2015-08-01 01:29:00,1793E-3,5C000000,-0724,0822,12246,025.8,045.4,0.481,740.5,01.18,0.508
2015-08-01 01:30:00,1709E-3,5C000000,-0724,0822,12278,025.8,045.4,0.480,740.5,01.18,0.508
2015-08-01 01:31:00,1641E-3,5C000000,-0724,0822,12234,025.8,045.4,0.480,740.5,01.18,0.508
2015-08-01 01:32:00,1700E-3,5C000000,-0724,0822,12095,025.8,045.4,0.481,740.5,01.18,0.508
2015-08-01 01:33:00,1650E-3,5C000000,-0724,0822,12276,025.8,045.4,0.481,740.5,01.18,0.508
2015-08-01 01:34:00,1540E-3,5C000000,-0724,0821,12235,025.8,045.4,0.480,740.5,01.18,0.508
2015-08-01 01:35:00,1723E-3,5C000000,-0724,0821,12406,025.8,045.4,0.480,740.5,01.18,0.508
2015-08-01 01:36:00,1536E-3,5C000000,-0724,0822,12343,025.8,045.4,0.481,740.5,01.18,0.508
2015-08-01 01:37:00,1601E-3,5C000000,-0724,0822,12297,025.8,045.4,0.480,740.5,01.18,0.508
2015-08-01 01:38:00,1654E-3,5C000000,-0724,0822,12302,025.8,045.4,0.480,740.5,01.18,0.508
2015-08-01 01:39:00,1670E-3,5C000000,-0724,0822,12346,025.8,045.4,0.480,740.5,01.18,0.508
2015-08-01 01:40:00,1602E-3,5C000000,-0724,0821,12190,025.8,045.4,0.481,740.4,01.18,0.508
2015-08-01 01:41:00,1585E-3,5C000000,-0724,0821,12312,025.8,045.4,0.480,740.5,01.18,0.508
2015-08-01 01:42:00,1605E-3,5C000000,-0724,0822,12373,025.8,045.4,0.480,740.5,01.18,0.508
2015-08-01 01:43:00,1677E-3,5C000000,-0724,0821,12350,025.8,045.4,0.481,740.5,01.18,0.508
2015-08-01 01:44:00,1543E-3,5C000000,-0724,0822,12221,025.8,045.4,0.481,740.5,01.18,0.508
2015-08-01 01:45:00,1576E-3,5C000000,-0724,0822,12254,025.8,045.4,0.480,740.5,01.18,0.508
2015-08-01 01:46:00,1600E-3,5C000000,-0724,0823,12310,025.8,045.4,0.480,740.5,01.18,0.508
2015-08-01 01:47:00,1657E-3,5C000000,-0724,0822,12420,025.8,045.4,0.481,740.5,01.18,0.508
2015-08-01 01:48:00,1582E-3,5C000000,-0724,0822,12249,025.8,045.4,0.481,740.5,01.18,0.508
2015-08-01 01:49:00,1746E-3,5C000000,-0724,0822,12138,025.8,045.4,0.480,740.5,01.18,0.508
2015-08-01 01:50:00,1647E-3,5C000000,-0724,0821,12256,025.8,045.4,0.480,740.5,01.18,0.508
2015-08-01 01:51:00,1643E-3,5C000000,-0724,0821,12404,025.8,045.4,0.481,740.5,01.18,0.508
2015-08-01 01:52:00,1700E-3,5C000000,-0724,0822,12235,025.8,045.4,0.480,740.5,01.18,0.508
2015-08-01 01:53:00,1648E-3,5C000000,-0724,0821,12267,025.8,045.4,0.480,740.5,01.18,0.508
2015-08-01 01:54:00,1678E-3,5C000000,-0724,0821,12336,025.8,045.4,0.481,740.5,01.18,0.508
2015-08-01 01:55:00,1495E-3,5C000000,-0724,0822,12321,025.8,045.4,0.480,740.5,01.18,0.508
2015-08-01 01:56:00,1602E-3,5C000000,-0724,0821,12232,025.8,045.4,0.480,740.5,01.18,0.508
2015-08-01 01:57:00,1682E-3,5C000000,-0724,0821,12412,025.8,045.4,0.481,740.4,01.18,0.508
2015-08-01 01:58:00,1741E-3,5C000000,-0724,0822,12306,025.8,045.4,0.481,740.4,01.18,0.508
2015-08-01 01:59:00,1690E-3,5C000000,-0724,0821,12302,025.8,045.4,0.480,740.4,01.18,0.508
2015-08-01 02:00:00,1676E-3,5C000000,-0724,0822,12277,025.8,045.4,0.480,740.4,01.18,0.508
2015-08-01 02:01:00,1676E-3,5C000000,-0724,0822,12255,025.8,045.4,0.481,740.3,01.18,0.508
2015-08-01 02:02:00,1621E-3,5C000000,-0724,0822,12252,025.8,045.4,0.480,740.4,01.18,0.508
2015-08-01 02:03:00,1740E-3,5C000000,-0724,0821,12312,025.8,045.4,0.480,740.3,01.18,0.508
2015-08-01 02:04:00,1696E-3,5C000000,-0724,0823,12306,025.8,045.4,0.481,740.3,01.18,0.508
2015-08-01 02:05:00,1613E-3,5C000000,-0724,0821,12350,025.8,045.4,0.480,740.3,01.18,0.508
2015-08-01 02:06:00,1676E-3,5C000000,-0724,0822,12408,025.8,045.4,0.480,740.3,01.18,0.508
2015-08-01 02:07:00,1624E-3,5C000000,-0724,0821,12307,025.8,045.4,0.480,740.3,01.18,0.508
2015-08-01 02:08:00,1748E-3,5C000000,-0724,0822,12218,025.8,045.4,0.481,740.2,01.18,0.508
2015-08-01 02:09:00,1585E-3,5C000000,-0724,0822,12214,025.8,045.4,0.480,740.2,01.18,0.508
2015-08-01 02:10:00,1658E-3,5C000000,-0724,0823,12158,025.8,045.4,0.480,740.3,01.18,0.508
2015-08-01 02:11:00,1662E-3,5C000000,-0724,0822,12240,025.8,045.4,0.481,740.3,01.18,0.508
2015-08-01 02:12:00,1507E-3,5C000000,-0724,0822,12134,025.8,045.4,0.480,740.3,01.18,0.508
2015-08-01 02:13:00,1728E-3,5C000000,-0724,0821,12260,025.8,045.4,0.480,740.2,01.18,0.508
2015-08-01 02:14:00,1739E-3,5C000000,-0724,0822,12220,025.8,045.4,0.481,740.2,01.18,0.508
2015-08-01 02:15:00,1601E-3,5C000000,-0724,0822,12106,025.8,045.4,0.481,740.2,01.18,0.508
2015-08-01 02:16:00,1710E-3,5C000000,-0724,0822,12223,025.8,045.4,0.480,740.2,01.18,0.508
2015-08-01 02:17:00,1608E-3,5C000000,-0724,0821,12363,025.8,045.4,0.480,740.2,01.18,0.508
2015-08-01 02:18:00,1688E-3,5C000000,-0724,0822,12282,025.8,045.4,0.481,740.2,01.18,0.508
2015-08-01 02:19:00,1698E-3,5C000000,-0724,0821,12275,025.8,045.4,0.480,740.2,01.18,0.508
2015-08-01 02:20:00,1767E-3,5C000000,-0724,0821,12335,025.8,045.4,0.480,740.2,01.18,0.508
2015-08-01 02:21:00,1647E-3,5C000000,-0724,0822,12337,025.8,045.4,0.481,740.2,01.18,0.508
2015-08-01 02:22:00,1697E-3,5C000000,-0724,0822,12136,025.8,045.4,0.480,740.2,01.18,0.508
2015-08-01 02:23:00,1616E-3,5C000000,-0724,0822,12307,025.8,045.4,0.480,740.2,01.18,0.508
2015-08-01 02:24:00,1691E-3,5C000000,-0724,0821,12249,025.8,045.4,0.480,740.2,01.18,0.508
2015-08-01 02:25:00,1644E-3,5C000000,-0724,0822,12187,025.8,045.4,0.480,740.2,01.18,0.508
2015-08-01 02:26:00,1705E-3,5C000000,-0724,0822,12215,025.8,045.4,0.480,740.2,01.18,0.508
2015-08-01 02:27:00,1732E-3,5C000000,-0724,0821,12264,025.8,045.4,0.480,740.2,01.18,0.508
2015-08-01 02:28:00,1655E-3,5C000000,-0724,0822,12452,025.8,045.4,0.481,740.2,01.18,0.508
2015-08-01 02:29:00,1722E-3,5C000000,-0724,0822,12149,025.8,045.4,0.480,740.2,01.18,0.508
2015-08-01 02:30:00,1586E-3,5C000000,-0724,0822,12294,025.8,045.4,0.480,740.2,01.18,0.508
2015-08-01 02:31:00,1528E-3,5C000000,-0724,0822,12387,025.8,045.4,0.481,740.2,01.18,0.508
2015-08-01 02:32:00,1495E-3,5C000000,-0724,0821,12310,025.8,045.4,0.480,740.2,01.18,0.508
2015-08-01 02:33:00,1565E-3,5C000000,-0724,0821,12111,025.8,045.4,0.480,740.1,01.18,0.508
2015-08-01 02:34:00,1542E-3,5C000000,-0724,0821,12204,025.8,045.4,0.480,740.1,01.18,0.508
2015-08-01 02:35:00,1663E-3,5C000000,-0724,0821,12120,025.8,045.4,0.480,740.1,01.18,0.508
2015-08-01 02:36:00,1705E-3,5C000000,-0724,0822,12247,025.8,045.4,0.480,740.1,01.18,0.508
2015-08-01 02:37:00,1670E-3,5C000000,-0724,0821,12310,025.8,045.4,0.480,740.1,01.18,0.508
2015-08-01 02:38:00,1737E-3,5C000000,-0724,0821,12263,025.8,045.4,0.480,740.1,01.18,0.508
2015-08-01 02:39:00,1649E-3,5C000000,-0724,0822,12419,025.8,045.4,0.480,740.1,01.18,0.508
2015-08-01 02:40:00,1722E-3,5C000000,-0724,0821,12234,025.8,045.4,0.480,740.1,01.18,0.508
2015-08-01 02:41:00,1694E-3,5C000000,-0724,0822,12249,025.8,045.4,0.480,740.1,01.18,0.508
2015-08-01 02:42:00,1613E-3,5C000000,-0724,0821,12277,025.8,045.4,0.480,740.1,01.18,0.508
2015-08-01 02:43:00,1526E-3,5C000000,-0724,0822,12253,025.8,045.4,0.480,740.2,01.18,0.508
2015-08-01 02:44:00,1797E-3,5C000000,-0724,0822,12319,025.9,045.4,0.481,740.1,01.18,0.508
2015-08-01 02:45:00,1735E-3,5C000000,-0724,0821,12491,025.8,045.4,0.480,740.1,01.18,0.508
2015-08-01 02:46:00,1665E-3,5C000000,-0724,0822,12255,025.8,045.4,0.480,740.1,01.18,0.508
2015-08-01 02:47:00,1718E-3,5C000000,-0724,0822,12101,025.8,045.4,0.481,740.2,01.18,0.508
2015-08-01 02:48:00,1611E-3,5C000000,-0724,0821,12259,025.8,045.4,0.480,740.1,01.18,0.508
2015-08-01 02:49:00,1631E-3,5C000000,-0724,0821,12354,025.8,045.4,0.480,740.1,01.18,0.508
2015-08-01 02:50:00,1759E-3,5C000000,-0724,0822,12299,025.8,045.4,0.480,740.1,01.18,0.508
2015-08-01 02:51:00,1686E-3,5C000000,-0724,0821,12350,025.8,045.4,0.480,740.1,01.18,0.508
2015-08-01 02:52:00,1509E-3,5C000000,-0724,0821,12275,025.8,045.4,0.480,740.1,01.18,0.508
2015-08-01 02:53:00,1616E-3,5C000000,-0724,0822,12288,025.8,045.4,0.480,740.1,01.18,0.508
2015-08-01 02:54:00,1672E-3,5C000000,-0724,0822,12324,025.8,045.4,0.480,740.1,01.18,0.508
2015-08-01 02:55:00,1658E-3,5C000000,-0724,0821,12293,025.8,045.4,0.480,740.1,01.18,0.508
2015-08-01 02:56:00,1697E-3,5C000000,-0724,0822,12259,025.8,045.4,0.480,740.1,01.18,0.508
2015-08-01 02:57:00,1549E-3,5C000000,-0724,0822,12256,025.8,045.4,0.481,740.1,01.18,0.508
2015-08-01 02:58:00,1610E-3,5C000000,-0724,0821,12348,025.8,045.4,0.480,740.1,01.18,0.508
2015-08-01 02:59:00,1677E-3,5C000000,-0724,0821,12177,025.8,045.4,0.480,740.1,01.18,0.508
2015-08-01 03:00:00,1678E-3,5C000000,-0724,0821,12237,025.8,045.4,0.480,740.1,01.18,0.508
2015-08-01 03:01:00,1639E-3,5C000000,-0724,0820,12329,025.8,045.4,0.480,740.1,01.18,0.508
2015-08-01 03:02:00,1595E-3,5C000000,-0724,0821,12329,025.8,045.4,0.480,740.1,01.18,0.508
2015-08-01 03:03:00,1551E-3,5C000000,-0724,0822,12445,025.9,045.4,0.481,740.1,01.18,0.508
2015-08-01 03:04:00,1615E-3,5C000000,-0724,0822,12239,025.8,045.4,0.480,740.1,01.18,0.508
2015-08-01 03:05:00,1670E-3,5C000000,-0724,0821,12162,025.9,045.4,0.480,740.1,01.18,0.508
2015-08-01 03:06:00,1478E-3,5C000000,-0724,0821,12278,025.8,045.4,0.480,740.0,01.18,0.508
2015-08-01 03:07:00,1664E-3,5C000000,-0724,0822,12313,025.8,045.4,0.480,740.1,01.18,0.508
2015-08-01 03:08:00,1481E-3,5C000000,-0724,0822,12315,025.8,045.4,0.480,740.0,01.18,0.508
2015-08-01 03:09:00,1561E-3,5C000000,-0724,0821,12302,025.9,045.4,0.480,740.0,01.18,0.508
2015-08-01 03:10:00,1677E-3,5C000000,-0724,0820,12184,025.8,045.4,0.480,740.1,01.18,0.508
2015-08-01 03:11:00,1706E-3,5C000000,-0724,0821,12262,025.9,045.4,0.480,740.0,01.18,0.508
2015-08-01 03:12:00,1575E-3,5C000000,-0724,0821,12158,025.9,045.4,0.480,740.0,01.18,0.508
2015-08-01 03:13:00,1570E-3,5C000000,-0724,0822,12462,025.9,045.4,0.480,740.0,01.18,0.508
2015-08-01 03:14:00,1663E-3,5C000000,-0724,0821,12216,025.9,045.4,0.480,740.0,01.18,0.508
2015-08-01 03:15:00,1493E-3,5C000000,-0724,0821,12293,025.9,045.4,0.480,740.0,01.18,0.508
2015-08-01 03:16:00,1651E-3,5C000000,-0724,0821,12190,025.9,045.4,0.480,740.0,01.18,0.508
2015-08-01 03:17:00,1581E-3,5C000000,-0724,0821,12259,025.9,045.4,0.480,740.0,01.18,0.508
2015-08-01 03:18:00,1569E-3,5C000000,-0724,0822,12134,025.9,045.4,0.480,739.9,01.18,0.508
2015-08-01 03:19:00,1565E-3,5C000000,-0724,0822,12464,025.8,045.4,0.481,739.9,01.18,0.508
2015-08-01 03:20:00,1660E-3,5C000000,-0724,0821,12290,025.8,045.4,0.480,739.9,01.18,0.508
2015-08-01 03:21:00,1692E-3,5C000000,-0724,0822,12230,025.9,045.4,0.480,739.9,01.18,0.508
2015-08-01 03:22:00,1744E-3,5C000000,-0724,0822,12244,025.8,045.4,0.480,739.9,01.18,0.508
2015-08-01 03:23:00,1673E-3,5C000000,-0724,0822,12321,025.9,045.4,0.480,739.9,01.18,0.508
2015-08-01 03:24:00,1663E-3,5C000000,-0724,0821,12320,025.8,045.4,0.480,739.9,01.18,0.508
2015-08-01 03:25:00,1701E-3,5C000000,-0724,0822,12336,025.9,045.4,0.480,739.9,01.18,0.508
2015-08-01 03:26:00,1619E-3,5C000000,-0724,0821,12287,025.9,045.4,0.480,739.9,01.18,0.508
2015-08-01 03:27:00,1632E-3,5C000000,-0724,0822,12244,025.9,045.4,0.480,739.9,01.18,0.508
2015-08-01 03:28:00,1677E-3,5C000000,-0724,0821,12395,025.9,045.4,0.480,739.9,01.18,0.508
2015-08-01 03:29:00,1834E-3,5C000000,-0724,0822,12210,025.9,045.4,0.480,739.9,01.18,0.508
2015-08-01 03:30:00,1588E-3,5C000000,-0724,0821,12092,025.9,045.4,0.480,739.9,01.18,0.508
2015-08-01 03:31:00,1695E-3,5C000000,-0724,0822,12285,025.9,045.4,0.480,739.9,01.18,0.508
2015-08-01 03:32:00,1606E-3,5C000000,-0724,0822,12158,025.9,045.4,0.480,739.9,01.18,0.508
2015-08-01 03:33:00,1749E-3,5C000000,-0724,0822,12352,025.9,045.4,0.480,739.9,01.18,0.508
2015-08-01 03:34:00,1667E-3,5C000000,-0724,0823,12305,025.9,045.4,0.480,739.8,01.18,0.508
2015-08-01 03:35:00,1742E-3,5C000000,-0724,0822,12391,025.9,045.4,0.480,739.8,01.18,0.508
2015-08-01 03:36:00,1511E-3,5C000000,-0724,0821,12293,025.9,045.4,0.480,739.8,01.18,0.508
2015-08-01 03:37:00,1559E-3,5C000000,-0724,0821,12316,025.9,045.4,0.480,739.8,01.18,0.508
2015-08-01 03:38:00,1553E-3,5C000000,-0724,0821,12308,025.9,045.4,0.480,739.8,01.18,0.508
2015-08-01 03:39:00,1617E-3,5C000000,-0724,0822,12050,025.9,045.4,0.480,739.8,01.18,0.508
2015-08-01 03:40:00,1661E-3,5C000000,-0724,0821,12238,025.9,045.4,0.480,739.8,01.18,0.508
2015-08-01 03:41:00,1704E-3,5C000000,-0724,0822,12336,025.9,045.4,0.480,739.8,01.18,0.508
2015-08-01 03:42:00,1672E-3,5C000000,-0724,0822,12186,025.9,045.4,0.480,739.8,01.18,0.508
2015-08-01 03:43:00,1579E-3,5C000000,-0724,0822,12265,025.9,045.4,0.480,739.8,01.18,0.508
2015-08-01 03:44:00,1677E-3,5C000000,-0724,0822,12327,025.9,045.4,0.480,739.7,01.18,0.508
2015-08-01 03:45:00,1596E-3,5C000000,-0724,0823,12311,025.9,045.4,0.480,739.8,01.18,0.508
2015-08-01 03:46:00,1606E-3,5C000000,-0724,0822,12322,025.9,045.4,0.480,739.7,01.18,0.508
2015-08-01 03:47:00,1591E-3,5C000000,-0724,0821,12205,025.9,045.4,0.480,739.7,01.18,0.508
2015-08-01 03:48:00,1638E-3,5C000000,-0724,0822,12270,025.9,045.4,0.480,739.7,01.18,0.508
2015-08-01 03:49:00,1611E-3,5C000000,-0724,0822,12270,025.9,045.4,0.480,739.7,01.18,0.508
2015-08-01 03:50:00,1704E-3,5C000000,-0724,0821,12327,025.9,045.4,0.480,739.7,01.18,0.508
2015-08-01 03:51:00,1643E-3,5C000000,-0724,0821,12324,025.9,045.4,0.480,739.7,01.18,0.508
2015-08-01 03:52:00,1705E-3,5C000000,-0724,0821,12195,025.9,045.4,0.480,739.7,01.18,0.508
2015-08-01 03:53:00,1679E-3,5C000000,-0724,0821,12256,025.9,045.4,0.480,739.7,01.18,0.508
2015-08-01 03:54:00,1725E-3,5C000000,-0724,0822,12292,025.9,045.4,0.480,739.7,01.18,0.508
2015-08-01 03:55:00,1784E-3,5C000000,-0724,0821,12320,025.9,045.4,0.480,739.7,01.18,0.508
2015-08-01 03:56:00,1672E-3,5C000000,-0724,0821,12432,025.9,045.4,0.480,739.7,01.18,0.508
2015-08-01 03:57:00,1546E-3,5C000000,-0724,0821,12282,025.9,045.4,0.480,739.7,01.18,0.508
2015-08-01 03:58:00,1656E-3,5C000000,-0724,0820,12161,025.9,045.4,0.480,739.6,01.18,0.508
2015-08-01 03:59:00,1687E-3,5C000000,-0724,0820,12276,025.9,045.4,0.480,739.7,01.18,0.508
2015-08-01 04:00:00,1726E-3,5C000000,-0724,0820,12408,025.9,045.4,0.480,739.6,01.18,0.508
2015-08-01 04:01:00,1630E-3,5C000000,-0724,0821,12199,025.9,045.4,0.480,739.6,01.18,0.508
2015-08-01 04:02:00,1565E-3,5C000000,-0724,0821,12401,025.9,045.4,0.480,739.6,01.18,0.508
2015-08-01 04:03:00,1685E-3,5C000000,-0724,0821,12238,025.9,045.4,0.480,739.6,01.18,0.508
2015-08-01 04:04:00,1611E-3,5C000000,-0724,0821,12238,025.9,045.4,0.480,739.6,01.18,0.508
2015-08-01 04:05:00,1575E-3,5C000000,-0724,0820,12233,025.9,045.4,0.480,739.6,01.18,0.508
2015-08-01 04:06:00,1657E-3,5C000000,-0724,0821,12187,025.9,045.4,0.480,739.6,01.18,0.508
2015-08-01 04:07:00,1484E-3,5C000000,-0724,0820,12245,025.9,045.4,0.480,739.6,01.18,0.508
2015-08-01 04:08:00,1562E-3,5C000000,-0724,0821,12381,025.9,045.4,0.480,739.6,01.18,0.508
2015-08-01 04:09:00,1754E-3,5C000000,-0724,0820,12166,025.9,045.4,0.480,739.6,01.18,0.508
2015-08-01 04:10:00,1614E-3,5C000000,-0724,0821,12300,025.9,045.4,0.480,739.6,01.18,0.508
2015-08-01 04:11:00,1514E-3,5C000000,-0724,0822,12301,025.9,045.4,0.480,739.6,01.18,0.508
2015-08-01 04:12:00,1668E-3,5C000000,-0724,0822,12342,025.9,045.4,0.480,739.6,01.18,0.508
2015-08-01 04:13:00,1696E-3,5C000000,-0724,0821,12285,025.9,045.4,0.480,739.6,01.18,0.508
2015-08-01 04:14:00,1578E-3,5C000000,-0724,0821,12393,025.9,045.4,0.480,739.6,01.18,0.508
2015-08-01 04:15:00,1820E-3,5C000000,-0724,0821,12278,025.9,045.4,0.480,739.6,01.18,0.508
2015-08-01 04:16:00,1809E-3,5C000000,-0724,0822,12348,025.9,045.4,0.480,739.6,01.18,0.508
2015-08-01 04:17:00,1442E-3,5C000000,-0724,0821,12258,025.9,045.4,0.480,739.6,01.18,0.508
2015-08-01 04:18:00,1739E-3,5C000000,-0724,0821,12239,025.9,045.4,0.480,739.6,01.18,0.508
2015-08-01 04:19:00,1694E-3,5C000000,-0724,0822,12353,025.9,045.4,0.480,739.6,01.18,0.508
2015-08-01 04:20:00,1649E-3,5C000000,-0724,0821,12333,025.9,045.4,0.480,739.6,01.18,0.508